THORAD DELTA 1 DEB, 17023

Orbit data source: Space-Track

THORAD DELTA 1 DEB, 17023 is space debris in SSO originally from a launch on Fri, 15 Nov 1974 UTC launched from the Air Force Western Test Range (AFWTR). Debris objects in space refer to the collection of defunct objects orbiting the Earth. Examples of debris include non-operational satellites, rocket bodies, and fragments generated from explosions, collisions, or faulty payload assembly.

Loading next visibility...
Identifier
17023, 1974-089EW
Orbit
SSO
Country
Flag of USUS
Related business
Manufacturer
Unknown
Mission
Spacecraft
Bus & Motor
Unknown
Mass
Unknown
Launch date (UTC)
1974-11-15 (51 years ago)
Launch vehicle
Unknown
Launch site
Air Force Western Test Range (AFWTR)
Object type
Payload
Rocket body
Debris
Shape & HBR
Unknown shape, 0.1 m
Radar Cross Section
Small (<0.1 m²)

Expand to show TLE details & history
Last TLE update: 4 days ago

TLE from 4 days ago
0 THORAD DELTA 1 DEB
1 17023U 74089EW  25349.88034152  .00000082  00000-0  68321-3 0  9998
2 17023 101.4833 313.4558 0053068 283.9644 135.0014 12.64626631885532
Epoch: 2025-12-15T21:07Z
TLE epoch observation values (Epoch: 2025-12-15T21:07:41.507Z)
Latitude
57.60034°
Longitude
-106.81441°
Altitude
1,442.725 km
Speed
7.132 km/s
True Right ascension
19h 39m 31s
True Declination
57° 27' 30"
Sunlit
Object was in daylight at epoch
Visualization orbit readout
Latitude
Unknown
Longitude
Unknown
Altitude
Unknown
Speed
Unknown
Apparent Right ascension
Unknown
Apparent Declination
Unknown
Sunlit
N/A
Visualization observer readout
Local Sidereal Time
01:24:22
Azimuth
Unknown
Elevation
Unknown
Doppler factor
Unknown
Orbital elements
Apogee altitude
1,442.703 km
Perigee altitude
1,360.133 km
Semi-major axis
7,779.555 km
Eccentricity
0.00531
Inclination
101.4833°
RAAN
313.4558°
Arg. of periapsis
283.9644°
True anomaly
135.42938°
Mean anomaly
135.0014°
Eccentric anomaly
135.21559°
Mean motion
3.16309 °/min
Orbital period
113.81 mins
BSTAR
0.00068321
Loading maneuver chart data...
Computing Atmospheric mass density...

Documentation

Showing up to 5 results
|